Weather in Gryady

Russia / Kursk Oblast     51°48′51″N   34°59′20″E
temp.,
°C
wind,
m/s
gust,
m/s
humid.,
%
clouds,
%
prec.,
mm/h
press.,
hPa
HPBL,
m
7 march, sun
sun700:00−10w34910 0.0 102171
03:00−10wsw48910 0.0 1020144
06:00−9sw613870 0.0 1018294
09:00−6sw8178044 0.0 1015586
12:00−2sw111780100 0.0 10111028
15:00−1wsw121889100 0.2 10071308
18:00−1wsw101888100 0.2 10051130
21:000w91692100 0.4 10051053
8 march, mon
mon800:00−1wnw5109798 0.9 1005603
03:00−3w369398 1.9 1005155
06:00−4wsw4994100 0.1 1004238
09:00−3w61193100 0.3 1005709
12:00−3wnw6980100 0.1 10071176
15:00−2w6879100 0.3 10071070
18:00−4w498775 0.1 1008375
21:00−6wnw498986 0.3 1011266
9 march, tue
tue900:00−10nw36925 0.0 1012104
03:00−11wnw34932 0.0 101381
06:00−12wnw349622 0.0 101575
09:00−10nw479361 0.0 1017302
12:00−8nw468669 0.0 1018617
15:00−7nw468285 0.1 1020851
18:00−9nw238684 0.0 102035
21:00−12nw228942 0.0 102322
10 march, wed
wed1000:00−14nnw23892 0.0 102321
03:00−15nnw12892 0.0 102420
06:00−16n11910 0.0 102520
09:00−13ne008925 0.0 102639
12:00−9s118398 0.0 1026270
15:00−7ssw127599 0.0 1026512
18:00−9sse1287100 0.0 102521
21:00−11s228895 0.0 102621
11 march, thu
thu1100:00−12sse228796 0.0 102721
03:00−13sse228770 0.0 102721
06:00−13sse238812 0.0 102723
09:00−10sse358922 0.0 1027145
12:00−5s4679100 0.0 1027521
15:00−3ssw587283 0.0 1026919
18:00−5s34800 0.0 102464
21:00−7s4107721 0.0 1023157